DC1MBB-9 Weather Reports


Display with metric or nautical units.
time (UTC)temp
F
wind
direction
speed
MPH
gust
MPH
rain 1hr
in
rain 24hr
in
rain mn
in
humidity
%
barometer
mb
20260507144247 68 0 0.0 0.0 0.00 0.00 0.00 44 956.0
20260507143646 69 0 0.0 0.0 0.00 0.00 0.00 43 957.0
20260507143045 68 0 0.0 0.0 0.00 0.00 0.00 45 957.0
20260507142445 69 0 0.0 0.0 0.00 0.00 0.00 43 957.0
20260507141844 69 0 0.0 0.0 0.00 0.00 0.00 43 956.0
20260507141243 69 0 0.0 0.0 0.00 0.00 0.00 43 957.0
20260507140642 70 0 0.0 0.0 0.00 0.00 0.00 42 956.0
20260507140042 71 0 0.0 0.0 0.00 0.00 0.00 42 957.0
20260507135441 71 0 0.0 0.0 0.00 0.00 0.00 41 957.0
20260507134840 71 0 0.0 0.0 0.00 0.00 0.00 41 957.0
20260507134239 70 0 0.0 0.0 0.00 0.00 0.00 42 957.0
20260507133638 70 0 0.0 0.0 0.00 0.00 0.00 42 957.0
20260507133038 68 0 0.0 0.0 0.00 0.00 0.00 44 957.0
20260507132437 68 0 0.0 0.0 0.00 0.00 0.00 44 957.0
20260507131836 69 0 0.0 0.0 0.00 0.00 0.00 43 957.0
20260507131235 70 0 0.0 0.0 0.00 0.00 0.00 40 957.0
20260507130634 72 0 0.0 0.0 0.00 0.00 0.00 38 957.0
20260507130034 78 0 0.0 0.0 0.00 0.00 0.00 33 957.0
20260507125433 69 0 0.0 0.0 0.00 0.00 0.00 42 957.0
20260507124832 67 0 0.0 0.0 0.00 0.00 0.00 46 957.0
20260507124231 65 0 0.0 0.0 0.00 0.00 0.00 49 957.0
20260507123631 65 0 0.0 0.0 0.00 0.00 0.00 47 957.0
20260507123030 66 0 0.0 0.0 0.00 0.00 0.00 48 957.0
20260507122429 66 0 0.0 0.0 0.00 0.00 0.00 47 957.0
20260507121828 66 0 0.0 0.0 0.00 0.00 0.00 47 957.0
20260507121227 66 0 0.0 0.0 0.00 0.00 0.00 47 956.0
20260507120627 66 0 0.0 0.0 0.00 0.00 0.00 47 957.0
20260507120026 66 0 0.0 0.0 0.00 0.00 0.00 48 956.0
20260507115425 64 0 0.0 0.0 0.00 0.00 0.00 48 957.0
20260507114824 65 0 0.0 0.0 0.00 0.00 0.00 47 957.0
20260507114224 65 0 0.0 0.0 0.00 0.00 0.00 48 957.0
20260507113623 65 0 0.0 0.0 0.00 0.00 0.00 49 957.0
20260507113023 65 0 0.0 0.0 0.00 0.00 0.00 49 957.0
20260507112421 64 0 0.0 0.0 0.00 0.00 0.00 51 957.0
20260507111821 64 0 0.0 0.0 0.00 0.00 0.00 54 957.0
20260507111220 63 0 0.0 0.0 0.00 0.00 0.00 53 957.0
20260507110619 62 0 0.0 0.0 0.00 0.00 0.00 55 957.0
20260507110018 63 0 0.0 0.0 0.00 0.00 0.00 57 957.0
20260507105417 62 0 0.0 0.0 0.00 0.00 0.00 58 957.0
20260507104817 63 0 0.0 0.0 0.00 0.00 0.00 56 957.0
20260507104216 62 0 0.0 0.0 0.00 0.00 0.00 51 957.0
20260507103615 62 0 0.0 0.0 0.00 0.00 0.00 54 957.0
20260507103014 62 0 0.0 0.0 0.00 0.00 0.00 54 957.0
20260507102414 62 0 0.0 0.0 0.00 0.00 0.00 54 957.0
20260507101813 62 0 0.0 0.0 0.00 0.00 0.00 55 957.0
20260507101212 61 0 0.0 0.0 0.00 0.00 0.00 57 957.0
20260507100611 60 0 0.0 0.0 0.00 0.00 0.00 59 957.0
20260507100010 59 0 0.0 0.0 0.00 0.00 0.00 61 957.0
20260507095410 59 0 0.0 0.0 0.00 0.00 0.00 61 957.0
20260507094809 59 0 0.0 0.0 0.00 0.00 0.00 61 957.0
20260507094208 58 0 0.0 0.0 0.00 0.00 0.00 56 957.0
20260507093607 58 0 0.0 0.0 0.00 0.00 0.00 56 957.0
20260507093007 58 0 0.0 0.0 0.00 0.00 0.00 57 956.0
20260507092406 57 0 0.0 0.0 0.00 0.00 0.00 58 956.0
20260507091805 59 0 0.0 0.0 0.00 0.00 0.00 56 956.0
20260507091204 58 0 0.0 0.0 0.00 0.00 0.00 58 956.0
20260507090604 58 0 0.0 0.0 0.00 0.00 0.00 59 956.0
20260507090003 58 0 0.0 0.0 0.00 0.00 0.00 59 956.0
20260507085402 58 0 0.0 0.0 0.00 0.00 0.00 59 956.0
20260507084801 57 0 0.0 0.0 0.00 0.00 0.00 62 956.0
20260507084200 57 0 0.0 0.0 0.00 0.00 0.00 60 956.0
20260507083600 58 0 0.0 0.0 0.00 0.00 0.00 60 956.0
20260507082959 58 0 0.0 0.0 0.00 0.00 0.00 58 956.0
20260507082358 58 0 0.0 0.0 0.00 0.00 0.00 59 956.0
20260507081757 59 0 0.0 0.0 0.00 0.00 0.00 59 956.0
20260507081157 58 0 0.0 0.0 0.00 0.00 0.00 59 956.0
20260507080556 58 0 0.0 0.0 0.00 0.00 0.00 60 956.0
20260507075955 59 0 0.0 0.0 0.00 0.00 0.00 59 956.0
20260507075354 58 0 0.0 0.0 0.00 0.00 0.00 61 955.0
20260507074754 57 0 0.0 0.0 0.00 0.00 0.00 63 955.0
20260507074153 57 0 0.0 0.0 0.00 0.00 0.00 64 956.0
20260507073552 57 0 0.0 0.0 0.00 0.00 0.00 63 956.0
20260507072951 57 0 0.0 0.0 0.00 0.00 0.00 64 956.0
20260507072351 57 0 0.0 0.0 0.00 0.00 0.00 64 955.0
20260507071149 57 0 0.0 0.0 0.00 0.00 0.00 63 955.0
20260507070548 57 0 0.0 0.0 0.00 0.00 0.00 65 955.0
20260507065947 55 0 0.0 0.0 0.00 0.00 0.00 67 955.0
20260507065347 57 0 0.0 0.0 0.00 0.00 0.00 65 955.0
20260507064746 57 0 0.0 0.0 0.00 0.00 0.00 66 955.0
20260507064145 57 0 0.0 0.0 0.00 0.00 0.00 66 955.0
20260507063544 57 0 0.0 0.0 0.00 0.00 0.00 65 955.0
20260507062944 57 0 0.0 0.0 0.00 0.00 0.00 67 955.0
20260507062343 56 0 0.0 0.0 0.00 0.00 0.00 67 955.0
20260507061742 55 0 0.0 0.0 0.00 0.00 0.00 68 955.0
20260507061141 56 0 0.0 0.0 0.00 0.00 0.00 68 955.0
20260507060541 56 0 0.0 0.0 0.00 0.00 0.00 69 955.0
20260507055940 55 0 0.0 0.0 0.00 0.00 0.00 72 955.0
20260507055339 55 0 0.0 0.0 0.00 0.00 0.00 72 955.0
20260507054738 54 0 0.0 0.0 0.00 0.00 0.00 73 955.0
20260507054137 55 0 0.0 0.0 0.00 0.00 0.00 75 955.0
20260507053537 55 0 0.0 0.0 0.00 0.00 0.00 74 955.0
20260507052936 55 0 0.0 0.0 0.00 0.00 0.00 74 955.0
20260507052335 54 0 0.0 0.0 0.00 0.00 0.00 76 955.0
20260507051734 54 0 0.0 0.0 0.00 0.00 0.00 75 955.0
20260507051134 54 0 0.0 0.0 0.00 0.00 0.00 76 954.0
20260507050533 54 0 0.0 0.0 0.00 0.00 0.00 76 954.0
20260507045932 54 0 0.0 0.0 0.00 0.00 0.00 75 954.0
20260507045331 54 0 0.0 0.0 0.00 0.00 0.00 76 954.0
20260507044731 54 0 0.0 0.0 0.00 0.00 0.00 77 954.0
20260507044130 54 0 0.0 0.0 0.00 0.00 0.00 77 954.0
20260507043529 54 0 0.0 0.0 0.00 0.00 0.00 77 954.0
20260507042929 54 0 0.0 0.0 0.00 0.00 0.00 76 954.0
20260507042328 53 0 0.0 0.0 0.00 0.00 0.00 77 954.0
20260507041727 53 0 0.0 0.0 0.00 0.00 0.00 79 954.0
20260507041126 54 0 0.0 0.0 0.00 0.00 0.00 75 954.0
20260507040525 54 0 0.0 0.0 0.00 0.00 0.00 74 954.0
20260507035925 53 0 0.0 0.0 0.00 0.00 0.00 76 954.0
20260507035324 53 0 0.0 0.0 0.00 0.00 0.00 76 954.0
20260507034723 53 0 0.0 0.0 0.00 0.00 0.00 77 954.0
20260507034122 53 0 0.0 0.0 0.00 0.00 0.00 76 954.0
20260507033521 53 0 0.0 0.0 0.00 0.00 0.00 76 954.0
20260507032921 53 0 0.0 0.0 0.00 0.00 0.00 77 954.0
20260507032320 53 0 0.0 0.0 0.00 0.00 0.00 77 954.0
20260507031719 53 0 0.0 0.0 0.00 0.00 0.00 76 954.0
20260507031118 53 0 0.0 0.0 0.00 0.00 0.00 76 954.0
20260507030518 52 0 0.0 0.0 0.00 0.00 0.00 78 954.0
20260507025917 52 0 0.0 0.0 0.00 0.00 0.00 76 954.0
20260507025316 53 0 0.0 0.0 0.00 0.00 0.00 77 954.0
20260507024715 52 0 0.0 0.0 0.00 0.00 0.00 75 954.0
20260507024115 54 0 0.0 0.0 0.00 0.00 0.00 74 954.0
20260507023514 53 0 0.0 0.0 0.00 0.00 0.00 73 954.0
20260507022913 53 0 0.0 0.0 0.00 0.00 0.00 73 954.0
20260507022312 54 0 0.0 0.0 0.00 0.00 0.00 71 954.0
20260507021712 54 0 0.0 0.0 0.00 0.00 0.00 72 954.0
20260507021111 55 0 0.0 0.0 0.00 0.00 0.00 71 953.0
20260507020510 55 0 0.0 0.0 0.00 0.00 0.00 72 953.0
20260507015909 55 0 0.0 0.0 0.00 0.00 0.00 71 953.0
20260507015308 54 0 0.0 0.0 0.00 0.00 0.00 73 953.0
20260507014708 54 0 0.0 0.0 0.00 0.00 0.00 74 953.0
20260507014107 54 0 0.0 0.0 0.00 0.00 0.00 74 953.0
20260507013506 54 0 0.0 0.0 0.00 0.00 0.00 73 953.0
20260507012905 53 0 0.0 0.0 0.00 0.00 0.00 76 953.0
20260507012306 53 0 0.0 0.0 0.00 0.00 0.00 77 953.0
20260507011103 53 0 0.0 0.0 0.00 0.00 0.00 77 953.0
20260507010502 54 0 0.0 0.0 0.00 0.00 0.00 77 953.0
20260507005902 53 0 0.0 0.0 0.00 0.00 0.00 76 953.0
20260507005301 54 0 0.0 0.0 0.00 0.00 0.00 76 953.0
20260507004700 54 0 0.0 0.0 0.00 0.00 0.00 75 953.0
20260507004059 54 0 0.0 0.0 0.00 0.00 0.00 75 953.0
20260507003459 54 0 0.0 0.0 0.00 0.00 0.00 75 953.0
20260507002858 53 0 0.0 0.0 0.00 0.00 0.00 76 953.0
20260507002257 54 0 0.0 0.0 0.00 0.00 0.00 75 953.0
20260507001656 54 0 0.0 0.0 0.00 0.00 0.00 75 953.0
20260507001056 54 0 0.0 0.0 0.00 0.00 0.00 75 953.0
20260507000455 54 0 0.0 0.0 0.00 0.00 0.00 75 953.0
20260506235854 54 0 0.0 0.0 0.00 0.00 0.00 76 953.0
20260506235253 55 0 0.0 0.0 0.00 0.00 0.00 74 953.0
20260506234652 54 0 0.0 0.0 0.00 0.00 0.00 74 953.0
20260506234052 54 0 0.0 0.0 0.00 0.00 0.00 74 953.0
20260506233451 55 0 0.0 0.0 0.00 0.00 0.00 73 953.0
20260506232850 54 0 0.0 0.0 0.00 0.00 0.00 75 953.0
20260506232249 54 0 0.0 0.0 0.00 0.00 0.00 74 953.0
20260506231649 54 0 0.0 0.0 0.00 0.00 0.00 75 953.0
20260506231048 54 0 0.0 0.0 0.00 0.00 0.00 75 953.0
20260506230447 54 0 0.0 0.0 0.00 0.00 0.00 77 953.0
20260506225846 54 0 0.0 0.0 0.00 0.00 0.00 74 953.0
20260506225246 55 0 0.0 0.0 0.00 0.00 0.00 74 953.0
20260506224645 55 0 0.0 0.0 0.00 0.00 0.00 73 953.0
20260506224044 55 0 0.0 0.0 0.00 0.00 0.00 74 953.0
20260506223443 55 0 0.0 0.0 0.00 0.00 0.00 75 953.0
20260506222843 55 0 0.0 0.0 0.00 0.00 0.00 75 953.0
20260506222242 55 0 0.0 0.0 0.00 0.00 0.00 76 953.0
20260506221641 55 0 0.0 0.0 0.00 0.00 0.00 76 953.0
20260506221040 55 0 0.0 0.0 0.00 0.00 0.00 75 953.0
20260506220439 55 0 0.0 0.0 0.00 0.00 0.00 75 953.0
20260506215839 55 0 0.0 0.0 0.00 0.00 0.00 75 953.0
20260506215238 54 0 0.0 0.0 0.00 0.00 0.00 77 953.0
20260506214637 54 0 0.0 0.0 0.00 0.00 0.00 77 953.0
20260506214036 55 0 0.0 0.0 0.00 0.00 0.00 76 953.0
20260506213436 55 0 0.0 0.0 0.00 0.00 0.00 77 953.0
20260506212835 55 0 0.0 0.0 0.00 0.00 0.00 76 953.0
20260506212234 54 0 0.0 0.0 0.00 0.00 0.00 75 953.0
20260506211633 55 0 0.0 0.0 0.00 0.00 0.00 74 953.0
20260506211033 55 0 0.0 0.0 0.00 0.00 0.00 74 953.0
20260506210432 55 0 0.0 0.0 0.00 0.00 0.00 74 953.0
20260506205831 55 0 0.0 0.0 0.00 0.00 0.00 74 953.0
20260506205230 55 0 0.0 0.0 0.00 0.00 0.00 73 952.0
20260506204629 55 0 0.0 0.0 0.00 0.00 0.00 73 952.0
20260506204029 55 0 0.0 0.0 0.00 0.00 0.00 75 952.0
20260506203428 55 0 0.0 0.0 0.00 0.00 0.00 76 952.0
20260506202827 55 0 0.0 0.0 0.00 0.00 0.00 75 952.0
20260506202226 55 0 0.0 0.0 0.00 0.00 0.00 76 952.0
20260506201626 55 0 0.0 0.0 0.00 0.00 0.00 77 952.0
20260506201025 56 0 0.0 0.0 0.00 0.00 0.00 75 952.0
20260506200424 55 0 0.0 0.0 0.00 0.00 0.00 77 952.0
20260506195823 55 0 0.0 0.0 0.00 0.00 0.00 79 952.0
20260506195223 56 0 0.0 0.0 0.00 0.00 0.00 74 952.0
20260506194622 56 0 0.0 0.0 0.00 0.00 0.00 77 952.0
20260506194021 56 0 0.0 0.0 0.00 0.00 0.00 77 952.0
20260506193420 55 0 0.0 0.0 0.00 0.00 0.00 75 952.0
20260506192820 55 0 0.0 0.0 0.00 0.00 0.00 77 952.0
20260506192219 55 0 0.0 0.0 0.00 0.00 0.00 75 952.0
20260506191618 55 0 0.0 0.0 0.00 0.00 0.00 74 952.0
20260506191017 56 0 0.0 0.0 0.00 0.00 0.00 72 952.0
20260506190417 56 0 0.0 0.0 0.00 0.00 0.00 74 952.0
20260506185816 56 0 0.0 0.0 0.00 0.00 0.00 74 951.0
20260506185215 56 0 0.0 0.0 0.00 0.00 0.00 72 951.0
20260506184614 57 0 0.0 0.0 0.00 0.00 0.00 69 951.0
20260506184013 56 0 0.0 0.0 0.00 0.00 0.00 74 951.0
20260506183413 57 0 0.0 0.0 0.00 0.00 0.00 70 951.0
20260506182812 57 0 0.0 0.0 0.00 0.00 0.00 72 951.0
20260506182211 57 0 0.0 0.0 0.00 0.00 0.00 75 951.0
20260506181610 57 0 0.0 0.0 0.00 0.00 0.00 73 951.0
20260506181010 56 0 0.0 0.0 0.00 0.00 0.00 77 951.0
20260506180409 57 0 0.0 0.0 0.00 0.00 0.00 75 951.0
20260506175808 56 0 0.0 0.0 0.00 0.00 0.00 81 951.0
20260506175207 56 0 0.0 0.0 0.00 0.00 0.00 79 950.0
20260506174607 58 0 0.0 0.0 0.00 0.00 0.00 79 950.0
20260506174006 57 0 0.0 0.0 0.00 0.00 0.00 79 950.0
20260506173405 58 0 0.0 0.0 0.00 0.00 0.00 78 950.0
20260506172804 57 0 0.0 0.0 0.00 0.00 0.00 80 950.0
20260506172203 58 0 0.0 0.0 0.00 0.00 0.00 78 950.0
20260506171603 58 0 0.0 0.0 0.00 0.00 0.00 81 950.0
20260506171002 61 0 0.0 0.0 0.00 0.00 0.00 86 950.0
20260506170401 61 0 0.0 0.0 0.00 0.00 0.00 94 949.0
20260506165800 62 0 0.0 0.0 0.00 0.00 0.00 99 949.0
20260506165200 61 0 0.0 0.0 0.00 0.00 0.00 10 949.0
20260506164559 59 0 0.0 0.0 0.00 0.00 0.00 10 949.0
20260506163958 60 0 0.0 0.0 0.00 0.00 0.00 10 949.0
20260506163357 60 0 0.0 0.0 0.00 0.00 0.00 10 949.0
20260506162756 61 0 0.0 0.0 0.00 0.00 0.00 10 949.0
20260506162156 61 0 0.0 0.0 0.00 0.00 0.00 93 948.0
20260506161555 62 0 0.0 0.0 0.00 0.00 0.00 96 948.0
20260506160954 62 0 0.0 0.0 0.00 0.00 0.00 10 948.0
20260506160353 61 0 0.0 0.0 0.00 0.00 0.00 99 948.0
20260506155753 61 0 0.0 0.0 0.00 0.00 0.00 10 948.0
20260506155152 61 0 0.0 0.0 0.00 0.00 0.00 99 948.0
20260506154551 60 0 0.0 0.0 0.00 0.00 0.00 10 949.0
20260506153950 61 0 0.0 0.0 0.00 0.00 0.00 94 948.0
20260506153350 61 0 0.0 0.0 0.00 0.00 0.00 97 948.0
20260506152749 61 0 0.0 0.0 0.00 0.00 0.00 96 948.0
20260506152148 61 0 0.0 0.0 0.00 0.00 0.00 96 949.0
20260506151547 62 0 0.0 0.0 0.00 0.00 0.00 89 949.0
20260506150946 61 0 0.0 0.0 0.00 0.00 0.00 91 949.0
20260506150346 62 0 0.0 0.0 0.00 0.00 0.00 79 949.0
20260506145745 63 0 0.0 0.0 0.00 0.00 0.00 77 949.0
20260506145144 65 0 0.0 0.0 0.00 0.00 0.00 73 949.0
20260506144543 66 0 0.0 0.0 0.00 0.00 0.00 68 948.0